This is the latest recevied weather packets stored in our database for station/object EA2RCU-15. If no packets are shown the sender has not sent any weather packets the latest 10 day(s).
| Time | Temp. | Humidity | Pressure | Rain* | Wind** | Luminosity | Snow |
|---|---|---|---|---|---|---|---|
| 1778082605 | 15.56° C | 65% | 996 hPa | 0 mm | - | - | - |
| 1778082305 | 16.11° C | 65% | 996 hPa | 0 mm | - | - | - |
| 1778082005 | 16.11° C | 63% | 996 hPa | 0 mm | - | - | - |
| 1778081705 | 16.67° C | 62% | 996 hPa | 0 mm | - | - | - |
| 1778081406 | 16.67° C | 62% | 996 hPa | 0 mm | - | - | - |
| 1778081105 | 17.22° C | 60% | 997 hPa | 0 mm | - | - | - |
| 1778080805 | 17.22° C | 61% | 997 hPa | 0 mm | - | - | - |
| 1778080505 | 17.22° C | 60% | 997 hPa | 0 mm | - | - | - |
| 1778080205 | 17.22° C | 60% | 997 hPa | 0 mm | - | - | - |
| 1778079905 | 16.67° C | 63% | 997 hPa | 0 mm | - | - | - |
| 1778079605 | 16.67° C | 64% | 997 hPa | 0 mm | - | - | - |
| 1778079305 | 16.11° C | 64% | 997 hPa | 0 mm | - | - | - |
| 1778079005 | 15.56° C | 65% | 997 hPa | 0 mm | - | - | - |
| 1778078705 | 15.56° C | 64% | 997 hPa | 0 mm | - | - | - |
| 1778078405 | 15.56° C | 64% | 997 hPa | 0 mm | - | - | - |
| 1778078105 | 15.56° C | 61% | 997 hPa | 1.02 mm | - | - | - |
| 1778077806 | 16.11° C | 62% | 997 hPa | 1.02 mm | - | - | - |
| 1778077505 | 16.11° C | 63% | 997 hPa | 1.02 mm | - | - | - |
| 1778077205 | 16.11° C | 64% | 997 hPa | 1.02 mm | - | - | - |
| 1778076905 | 15.56° C | 63% | 997 hPa | 1.02 mm | - | - | - |
| 1778076605 | 15.56° C | 64% | 997 hPa | 1.02 mm | - | - | - |
| 1778076305 | 15.56° C | 64% | 997 hPa | 1.02 mm | - | - | - |
| 1778076005 | 15° C | 64% | 997 hPa | 1.02 mm | - | - | - |
| 1778075706 | 15.56° C | 67% | 997 hPa | 1.02 mm | - | - | - |
| 1778075405 | 15.56° C | 68% | 997 hPa | 1.02 mm | - | - | - |
* Rain latest hour (hover to see other rain measurements)
** Current wind speed in m/s (hover to see current wind gust speed)